{"data":{"norad_id":46159,"intl_designator":"2020-057AU","name":"STARLINK-1595","alt_names":[],"object_type":"PAYLOAD","status":"ACTIVE","operator":null,"country":"US","launch_date":"2020-08-18","launch_site_code":"AFETR","launch_vehicle":null,"mission":null,"orbit_class":"UNKNOWN","rcs_meters":null,"size_class":null,"mass_kg":null,"dimensions":null,"purposes":["comms"],"wikipedia_slug":null,"has_3d_model":false,"image_url":null,"decayed_at":null,"tle_current":{"epoch":"2026-05-24T16:37:16.922208Z","epoch_age_seconds":104778,"freshness":"FRESH","line1":"1 46159U 20057AU  26144.69255697  .00082261  00000+0  68912-3 0  9992","line2":"2 46159  53.0430 286.7843 0001949 356.5122   3.5880 15.69281114319462","mean_motion":15.69281114,"eccentricity":0.0001949,"inclination_deg":53.043,"raan_deg":286.7843,"arg_perigee_deg":356.5122,"mean_anomaly_deg":3.588,"bstar":0.00068912,"rev_number":31946,"period_min":91.761761940124,"perigee_km":359.64088859304,"apogee_km":362.26778639639,"semimajor_km":6739.0913374947,"source":"CELESTRAK","updated_at":"2026-05-25T13:38:16.468031Z"}}}